Tracking 26258 objects as of 3-Oct-2022
HD Live streaming from Space Station
objects crossing your sky now

STARLINK-4728

Track STARLINK-4728 now!
10-day predictions
STARLINK-4728 is classified as:


NORAD ID: 53793
Int'l Code: 2022-111W
Perigee: 356.3 km
Apogee: 357.5 km
Inclination: 53.2 °
Period: 91.5 minutes
Semi major axis: 6727 km
RCS: Unknown
Launch date: September 11, 2022
Source: United States (US)
Launch site: AIR FORCE EASTERN TEST RANGE (AFETR)
aabbcc
Your satellite tracking list
Your tracking list is empty




NASA's NSSDC Master Catalog

Two Line Element Set (TLE):
1 53793U 22111W   22275.91667824  .00058870  00000-0  42107-3 0  9990
2 53793  53.2165 158.9206 0000920 109.8954  51.6098 15.73192655  1306
Source of the keplerian elements: AFSPC